Regional Weather Roundup
Issued by NWS Green Bay, WI

Home | Current Version | Previous Version | Graphics & Text | Print | Product List | Glossary Off
Versions: 1 2 3 4 5 6 7 8 9 10 11 12 13 14 15 16 17 18 19 20 21 22 23 24 25 26 27 28 29 30 31 32 33 34 35 36 37 38 39 40 41 42 43 44 45 46 47 48 49 50

000
ASUS43 KGRB 050600
RWRGRB

NORTH-CENTRAL AND NORTHEAST WISCONSIN REGIONAL WEATHER ROUNDUP
NATIONAL WEATHER SERVICE GREEN BAY WI
100 AM CDT SUN JUL 05 2015

WIZ005-009-010>012-018-019-050700-
NORTH CENTRAL WISCONSIN

CITY           SKY/WX    TMP DP  RH WIND       PRES   REMARKS
IRONWOOD       CLEAR     63  61  94 S3        29.93S
MANITOWISH WTR NOT AVBL
ARBOR VITAE    NOT AVBL
EAGLE RIVER    NOT AVBL
LAND O LAKES   NOT AVBL
RHINELANDER    MOCLDY    62  60  93 CALM      30.03R FOG
PHILLIPS       NOT AVBL
ANTIGO         NOT AVBL
TOMAHAWK       NOT AVBL
MERRILL        NOT AVBL
$$

WIZ013-073-050700-
NORTHEAST WISCONSIN

CITY           SKY/WX    TMP DP  RH WIND       PRES   REMARKS
IRON MOUNTAIN  CLEAR     62  58  86 SE3       30.01S FOG
MARINETTE      PTCLDY    63  57  82 S3        30.01R
$$

WIZ017-030-035>037-045-050700-
CENTRAL WISCONSIN

CITY           SKY/WX    TMP DP  RH WIND       PRES   REMARKS
MEDFORD        NOT AVBL
WAUSAU         CLEAR     68  64  87 S6        30.00R FOG
MOSINEE        NOT AVBL
MARSHFIELD     PTCLDY    65  61  87 CALM      30.02R FOG
WISC RAPIDS    CLEAR     65  61  87 CALM      30.02R
STEVENS POINT  NOT AVBL
WAUPACA        NOT AVBL
SHAWANO        NOT AVBL
CLINTONVILLE   NOT AVBL
$$

WIZ038-039-048-051-050700-
FOX VALLEY

CITY           SKY/WX    TMP DP  RH WIND       PRES   REMARKS
NWS GREEN BAY  CLEAR     64  61  90 CALM      30.02R FOG
APPLETON       NOT AVBL
OSHKOSH        CLEAR     65  61  87 S6        30.01R
FOND DU LAC    CLEAR     65  61  87 S5        30.02R
$$

WIZ022-050-052-050700-
EAST CENTRAL WISCONSIN

CITY           SKY/WX    TMP DP  RH WIND       PRES   REMARKS
STURGEON BAY   CLEAR     61  55  82 SE8       30.05R
MANITOWOC      NOT AVBL
SHEBOYGAN      CLEAR     61  57  87 SW3       30.03R
$$

LMZ563-521-522-541>543-050700-
LAKESHORE

STATION/POSITION TIME  TEMP    WIND        PRES    VSBY  WAVE
                       AIR SEA DIR/SP/G                  HT/PER
                 (UTC) (F)     (DEG/KT/KT) (MB)    (MI)  (FT/S)
SHEBOYGAN LKSHOR 0500   61     180/  9/ 10 1016.4F
KEWAUNEE LKSHORE 0500   61     130/  2/  4 1015.6R
ALGOMA MARINA    0511          160/  7/  8   N/A
NORTHPORT PIER   0500   62     180/  3/  7 1016.3R
N MID LAKE BUOY  0450   55 49  200/  6/  6 1016.4R         0
S GREEN BAY BUOY 0530   67 69  170/  6/  8 1017.4R
CHAMBERS ISLAND  0500   64     140/  3/  7 1016.3R
MENOMINEE LKSHOR 0500   67     160/  9/ 11 1016.6R
$$


USA.gov is the U.S. government's official web portal to all federal, state and local government web resources and services.